TimeCST,TemperatureF,Dew PointF,Humidity,Sea Level PressureIn,VisibilityMPH,Wind Direction,Wind SpeedMPH,Gust SpeedMPH,PrecipitationIn,Events,Conditions,WindDirDegrees,DateUTC
12:55 AM,39.0,35.1,86,30.09,10.0,South,8.1,-,N/A,,Clear,170,2012-12-06 06:55:00
1:55 AM,39.9,35.1,83,30.07,10.0,SSE,10.4,-,N/A,,Clear,150,2012-12-06 07:55:00
2:55 AM,37.9,34.0,86,30.07,10.0,SSE,8.1,-,N/A,,Clear,150,2012-12-06 08:55:00
3:55 AM,37.9,34.0,86,30.06,10.0,SSE,6.9,-,N/A,,Clear,160,2012-12-06 09:55:00
4:55 AM,35.1,33.1,92,30.05,10.0,SSE,6.9,-,N/A,,Clear,150,2012-12-06 10:55:00
5:55 AM,36.0,33.1,89,30.05,10.0,SSE,5.8,-,N/A,,Clear,150,2012-12-06 11:55:00
6:55 AM,36.0,34.0,93,30.04,10.0,SSE,6.9,-,N/A,,Clear,150,2012-12-06 12:55:00
7:55 AM,37.9,35.1,89,30.03,10.0,SSE,8.1,-,N/A,,Clear,160,2012-12-06 13:55:00
8:55 AM,41.0,35.1,79,30.03,10.0,South,6.9,-,N/A,,Clear,180,2012-12-06 14:55:00
9:55 AM,44.1,35.1,71,30.02,10.0,South,9.2,-,N/A,,Clear,180,2012-12-06 15:55:00
10:55 AM,46.0,35.1,66,30.00,10.0,South,10.4,-,N/A,,Partly Cloudy,190,2012-12-06 16:55:00
11:55 AM,48.9,37.0,64,29.97,10.0,SSW,5.8,-,N/A,,Clear,200,2012-12-06 17:55:00
12:55 PM,50.0,37.0,61,29.95,10.0,South,6.9,-,N/A,,Clear,190,2012-12-06 18:55:00
1:55 PM,51.1,37.9,61,29.94,10.0,SSW,8.1,-,N/A,,Clear,210,2012-12-06 19:55:00
2:55 PM,51.1,39.0,63,29.93,10.0,SSW,6.9,-,N/A,,Partly Cloudy,200,2012-12-06 20:55:00
3:55 PM,50.0,39.0,66,29.92,10.0,Calm,Calm,-,N/A,,Partly Cloudy,0,2012-12-06 21:55:00
4:55 PM,48.9,39.0,69,29.93,10.0,Calm,Calm,-,N/A,,Overcast,0,2012-12-06 22:55:00
5:55 PM,46.0,39.9,79,29.96,10.0,Calm,Calm,-,N/A,,Overcast,0,2012-12-06 23:55:00
6:55 PM,45.0,43.0,93,29.96,10.0,Calm,Calm,-,0.01,Rain,Light Rain,0,2012-12-07 00:55:00
7:55 PM,44.1,43.0,96,29.96,10.0,SSW,3.5,-,0.01,,Overcast,210,2012-12-07 01:55:00
8:55 PM,45.0,43.0,93,29.95,9.0,ENE,3.5,-,0.00,Rain,Light Rain,60,2012-12-07 02:55:00
9:42 PM,44.6,42.8,93,29.95,9.0,Calm,Calm,-,0.00,,Overcast,0,2012-12-07 03:42:00
9:55 PM,44.1,43.0,96,29.97,8.0,Calm,Calm,-,0.00,,Overcast,0,2012-12-07 03:55:00
10:55 PM,44.1,43.0,96,29.97,7.0,North,5.8,-,N/A,,Overcast,360,2012-12-07 04:55:00
11:50 PM,44.6,42.8,93,29.94,8.0,NNE,9.2,-,N/A,,Overcast,20,2012-12-07 05:50:00
11:55 PM,44.1,42.1,93,29.96,8.0,NNE,9.2,-,N/A,,Overcast,20,2012-12-07 05:55:00